{"data":{"norad_id":65882,"intl_designator":"2025-224A","name":"STARLINK-35270","alt_names":[],"object_type":"PAYLOAD","status":"ACTIVE","operator":null,"country":"US","launch_date":"2025-10-07","launch_site_code":"AFETR","launch_vehicle":null,"mission":null,"orbit_class":"UNKNOWN","rcs_meters":null,"size_class":null,"mass_kg":null,"dimensions":null,"purposes":["comms"],"wikipedia_slug":null,"has_3d_model":false,"image_url":null,"decayed_at":null,"tle_current":{"epoch":"2026-09-20T01:11:14.965728Z","epoch_age_seconds":145089,"freshness":"FRESH","line1":"1 65882U 25224A   26263.04947877  .00019375  00000+0  58305-3 0  9997","line2":"2 65882  53.1582 184.1796 0001441  92.4349 267.6819 15.34401861 54643","mean_motion":15.34401861,"eccentricity":0.0001441,"inclination_deg":53.1582,"raan_deg":184.1796,"arg_perigee_deg":92.4349,"mean_anomaly_deg":267.6819,"bstar":0.00058305,"rev_number":5464,"period_min":93.847644258038,"perigee_km":461.71194464695,"apogee_km":463.68347321007,"semimajor_km":6840.8347089285,"source":"CELESTRAK","updated_at":"2026-09-21T09:00:35.754611Z"}}}